Location: Baevegem
(50.9444°N, 3.8650°E)
Time: 18:32:40
(UTC+00:00)

Daily predictions for brighter satellites

Satellite Brightness Start Highest point End
(mag) Time Altitude Azimuth Time Altitude Azimuth Time Altitude Azimuth
Cosmos 2016 Rocket 3.9 18:38:24 10° S 18:44:28 75° E 18:50:36 10° NNE
TSX-5 4.2 18:42:32 10° NNW 18:45:26 31° NE 18:48:17 10° ESE
Resurs 1-3 3.6 18:41:29 10° SSE 18:45:49 89° ENE 18:50:11 10° NNW
CARTOSAT-1 4.1 18:43:36 10° SE 18:47:34 40° ENE 18:51:34 10° N
DMSP B5D1-3 4.5 18:42:42 10° NNE 18:47:48 72° ESE 18:52:51 10° S
SPOT 5 4.4 18:46:04 10° E 18:49:14 18° ENE 18:52:18 10° NNE
SPOT 1/Viking Rocket 3.6 18:44:13 10° SSE 18:49:24 85° ENE 18:54:36 10° NNW
ATLAS 2AS CENTAUR R/B 3.4 18:45:37 10° WSW 18:52:49 61° NW 18:59:46 10° NE
ATLAS CENTAUR R/B 3.6 18:50:26 10° WNW 18:54:58 46° SW 19:01:55 10° SSE
Cosmos 1898 Rocket 4.1 18:49:46 10° NNW 18:55:02 62° WSW 19:00:14 10° S
Cosmos 1151 Rocket 3.0 18:52:23 10° N 18:56:42 89° WSW 19:00:57 10° S
ARGOS Delta rocket 4.0 18:52:52 10° SSE 18:58:00 69° ENE 19:02:53 10° N
Cosmos 2360 Rocket 2.3 18:52:36 10° SSW 18:58:16 89° WNW 19:03:57 10° NNE
Okean O Rocket 2.4 18:55:18 10° SE 18:59:15 33° ENE 19:03:14 10° N
Cosmos 1340 2.4 18:57:37 10° S 19:00:48 51° E 19:03:59 10° NNE
USA 186 1.9 18:59:36 10° SSE 19:02:43 53° ENE 19:05:54 10° N
Meteor PRIRODA 3.8 18:59:47 10° S 19:03:04 66° WSW 19:06:23 10° NNW
Resurs 01 Rocket 1.7 18:59:22 10° SSE 19:03:43 58° ENE 19:08:05 10° N
Cosmos 2322 Rocket 2.7 19:01:31 10° SW 19:07:12 66° WNW 19:12:55 10° NNE
Cosmos 2237 Rocket 3.8 19:05:00 10° ESE 19:07:32 13° E 19:10:04 10° ENE
Helios 1A 2.8 19:04:38 10° NNE 19:08:44 75° ESE 19:12:47 10° S
ACS3 Solar Sail 2.3 19:06:14 10° SE 19:12:16 46° ENE 19:18:19 10° N
BlueWalker 3 1.8 19:08:42 10° WNW 19:12:29 87° NNE 19:15:32 15° ESE
NOSS 2-1 (E) 3.6 19:09:03 10° NW 19:12:35 55° NE 19:16:31 14° ESE
Cosmos 44 Rocket 3.3 19:08:02 10° NW 19:12:51 82° SW 19:17:32 10° SE
Cosmos 1515 Rocket 4.5 19:10:40 10° N 19:14:29 29° ENE 19:17:32 14° SE
Cosmos 2333 Rocket 2.5 19:09:24 10° SW 19:15:11 74° WNW 19:20:59 10° NNE
Okean-O 3.6 19:12:12 13° ESE 19:15:27 29° ENE 19:19:16 10° N
SL-08 R/B 3.6 19:11:12 10° NNE 19:16:08 79° WNW 19:21:03 10° SSW
ATLAS 3B R/B 4.2 19:10:04 10° NW 19:17:16 41° WSW 19:24:19 10° S
Feng Yun 1-1 Rocket 4.4 19:11:41 10° SSE 19:17:24 73° ENE 19:23:16 10° NNW
Cosmos 2219 Rocket 2.1 19:13:29 10° SSW 19:19:09 75° ESE 19:24:50 10° NNE
Cosmos 1626 4.0 19:18:42 10° NW 19:21:15 25° W 19:23:47 10° SSW
Meteor 1-5 Rocket 4.4 19:16:53 10° SSW 19:22:30 79° WNW 19:28:22 10° N
NOSS 2-1 (D) 3.4 19:19:04 10° NW 19:22:37 69° NE 19:26:15 16° SE
CSL-04 Rocket 3.6 19:18:36 10° SSE 19:23:58 76° ENE 19:29:18 10° NNW
BREEZE-M DEB (TANK) 2.4 19:22:12 10° SW 19:24:07 34° SSE 19:25:16 21° ESE
Cosmos 1842 3.3 19:21:29 10° N 19:25:01 48° ENE 19:27:54 14° SSE
USA 229 DEB 4.5 19:19:36 10° NW 19:26:53 61° SW 19:34:48 10° SSE
USA 229 4.4 19:19:46 10° NW 19:27:03 61° SW 19:34:56 10° SSE
SL-16 R/B 3.9 19:22:21 10° WSW 19:27:33 36° NW 19:32:45 10° NNE
SJ-6B 4.3 19:26:58 10° SSW 19:30:19 34° W 19:33:40 10° NNW
Cosmos 1766 Rocket 3.5 19:28:24 10° S 19:32:41 62° E 19:37:01 10° NNE
USA 267 3.7 19:29:00 12° E 19:35:00 59° NNE 19:41:26 10° WNW
Cosmos 2369 Rocket 4.2 19:32:12 10° N 19:35:48 17° NNE 19:39:24 10° ENE
BREEZE-M R/B 3.9 19:32:47 10° W 19:37:01 76° S 19:49:01 14° E
Meteor 2-17 Rocket 4.4 19:32:09 10° N 19:38:13 71° ENE 19:44:15 10° SSE
Cosmos 2322 3.7 19:34:24 10° SSW 19:39:58 62° ESE 19:45:34 10° NE
USA 276 1.6 19:37:48 10° W 19:40:38 74° S 19:41:31 37° ESE
Cosmos 1400 Rocket 3.2 19:38:10 10° NNW 19:42:00 61° W 19:45:45 10° S
Cosmos 1707 2.4 19:43:02 10° N 19:46:36 72° ENE 19:48:44 22° SSE
MOS 1 4.4 19:42:10 16° SE 19:46:40 61° ENE 19:52:18 10° N
PSLV R/B 3.6 19:44:58 23° SSE 19:47:01 63° ENE 19:50:33 10° N
Cosmos 1315 Rocket 3.7 19:43:34 10° N 19:47:08 31° ENE 19:48:17 26° E
CZ-4 R/B 3.0 19:45:26 10° SSW 19:48:51 32° W 19:52:21 10° NNW
In-Cosmos 22 4.4 19:43:31 10° N 19:49:13 58° ENE 19:53:04 20° SSE
Cosmos 1733 3.6 19:49:20 32° ESE 19:49:49 34° E 19:52:58 10° NNE
Cosmos 1891 Rocket 4.4 19:43:52 10° S 19:49:54 74° E 19:56:04 10° NNE
Cosmos 1726 2.9 19:47:17 10° SSW 19:49:57 38° WNW 19:52:38 10° N
Cosmos 1408 Rocket 4.3 19:50:28 27° SE 19:51:48 32° E 19:55:44 10° NNE
KORONAS-FOTON 4.0 19:53:11 10° NNW 19:56:53 67° W 19:59:47 16° S
Lacrosse 4 Rocket 2.5 19:53:03 10° NW 19:57:11 43° WSW 20:00:26 15° S
Cosmos 1536 2.8 19:55:07 23° SSE 19:57:15 53° E 20:01:00 10° NNE
COSMOS 2428 2.6 19:53:22 10° SSW 19:59:01 71° ESE 20:04:45 10° NNE
Cosmos 1818 3.5 19:53:46 10° SW 19:59:14 85° SE 20:04:45 10° NE
Nadezhda 4 Rocket 4.0 19:54:45 10° N 20:01:00 69° ENE 20:05:35 19° SSE
Cosmos 1356 Rocket 3.4 19:56:59 10° NNW 20:01:11 87° WSW 20:03:50 22° S
Meteor 1-4 Rocket 2.6 19:58:36 10° NNW 20:01:13 48° W 20:02:21 27° SSW
Cosmos 1943 Rocket 2.2 19:58:16 10° NNW 20:03:45 62° NE 20:06:27 30° SE
Cosmos 1674 4.0 20:01:59 10° NNW 20:05:02 33° W 20:08:03 10° SSW
Meteor 1-14 Rocket 4.2 20:01:21 10° SSW 20:06:54 88° WNW 20:12:29 10° NNE
Cosmos 1513 Rocket 4.4 20:02:45 10° S 20:08:48 89° WSW 20:14:57 10° N
SL-14 R/B 4.1 20:05:35 10° N 20:09:00 31° ENE 20:09:03 31° ENE
USA 59 Rocket 0.4 20:05:49 10° NW 20:09:32 57° SW 20:11:54 27° SSE
Cosmos 2026 Rocket 4.3 20:03:47 10° N 20:09:51 46° ENE 20:12:32 30° SE
Terra 2.2 20:09:10 34° ESE 20:10:40 45° ENE 20:15:10 10° N
Cosmos 1464 Rocket 3.9 20:06:05 10° S 20:12:21 77° E 20:18:44 10° NNE
Meteor 1-11 Rocket 3.7 20:09:43 15° S 20:14:21 60° E 20:19:50 10° NNE
Cosmos 1805 Rocket 4.1 20:14:27 35° E 20:14:27 35° E 20:18:21 10° NNE
Ariane Rocket 3.6 20:14:45 32° E 20:16:11 39° ENE 20:20:52 10° N
Cosmos 1125 Rocket 3.4 20:11:21 10° NNW 20:16:34 75° ENE 20:18:45 35° SE
SPOT 3 Rocket 4.2 20:17:15 33° E 20:18:41 39° ENE 20:23:28 10° N
USA 290 2.7 20:15:54 10° NNW 20:19:06 56° WSW 20:19:44 46° SSW
Cosmos 2278 Rocket 2.3 20:14:17 10° NNW 20:19:57 76° WSW 20:22:57 29° SSE
ERS-1 Rocket 3.0 20:19:35 37° SE 20:21:30 66° ENE 20:26:30 10° N
BREEZE-M DEB (TANK) 4.0 20:19:26 10° W 20:22:39 77° S 20:26:06 29° ESE
Meteor 2-9 Rocket 4.1 20:20:43 27° SSE 20:23:31 60° E 20:28:50 10° NNE
USA 306 4.4 20:22:31 10° SW 20:23:20 16° SSW 20:23:20 16° SSW
NOSS 2-1 (C) 4.4 20:22:27 10° WNW 20:26:02 41° SW 20:27:51 28° S
SPOT 5 2.9 20:24:19 28° S 20:26:47 74° WSW 20:31:22 10° NNW
IRS-1A Rocket 4.3 20:25:48 31° SSE 20:28:46 84° ENE 20:34:31 10° NNW
Cosmos 2034 Rocket 3.9 20:26:34 19° S 20:31:07 73° E 20:37:18 10° NNE
Okean 3 Rocket 4.0 20:28:36 10° SSW 20:33:03 63° WNW 20:37:30 10° N
Cosmos 1627 Rocket 4.5 20:28:27 10° N 20:34:47 67° ENE 20:37:11 39° SE
Okean O Rocket 3.1 20:31:48 12° SSW 20:35:29 33° W 20:39:32 10° NNW
Cosmos 2208 Rocket 4.3 20:35:48 45° ESE 20:35:53 45° ESE 20:40:56 10° NE
NOSS 0 Rocket 3.8 20:33:20 10° SSW 20:39:35 83° ESE 20:45:52 10° NNE
Resurs 01 Rocket 4.1 20:37:22 10° SW 20:40:30 19° W 20:43:40 10° NW
USA 215 3.4 20:35:13 10° ENE 20:41:27 45° SE 20:47:39 10° SSW
Cosmos 1656 Rocket 4.4 20:39:39 10° NNW 20:45:01 41° NE 20:46:20 35° E
ATLAS 2AS CENTAUR R/B 4.4 20:38:47 10° WNW 20:45:03 31° NNW 20:51:06 10° NE
MINOTAUR IV R/B 4.4 20:40:41 10° NNW 20:45:16 79° ENE 20:45:44 69° ESE
Meteor 1-21 4.3 20:40:38 10° N 20:46:20 65° ENE 20:47:41 50° SE
Cosmos 2228 Rocket 3.6 20:42:19 10° N 20:46:31 44° ENE 20:46:31 44° ENE
Meteor 2-12 Rocket 4.4 20:41:39 10° N 20:47:48 68° ENE 20:49:33 47° SE
MOS 1 Rocket 3.7 20:45:58 36° S 20:47:56 66° WSW 20:53:09 10° NNW
BlueWalker 3 3.4 20:46:59 10° W 20:49:46 27° SW 20:49:46 27° SW
Cosmos 2237 Rocket 2.0 20:46:17 18° SSW 20:50:35 73° ESE 20:56:13 10° NNE
Okean-O 3.8 20:49:39 24° SSW 20:51:43 38° W 20:55:51 10° NNW
Cosmos 2297 4.3 20:47:21 10° NNW 20:52:41 41° NE 20:53:48 37° ENE
Cosmos 1805 3.8 20:55:18 48° N 20:55:18 48° N 20:58:02 10° N
Aureole 3 Rocket 4.0 20:47:44 14° S 20:54:29 89° W 20:59:54 10° N
ACS3 Solar Sail 3.0 20:50:27 10° SSW 20:56:25 40° W 21:02:25 10° NNW
Sich 1 2.9 20:57:04 77° SW 20:57:19 82° W 21:01:39 10° N
CZ-4C R/B 4.0 20:55:44 10° NNE 20:58:28 46° NNE 20:58:28 46° NNE
Cosmos 2219 Rocket 4.3 20:58:52 10° W 21:03:40 27° NW 21:08:29 10° NNE
Cosmos 2279 Rocket 4.1 21:06:50 50° ESE 21:07:10 51° E 21:13:10 10° NNE
BREEZE-M DEB (TANK) 3.5 20:53:19 10° W 21:09:33 80° S 21:10:46 57° ESE
Cosmos 1500 Rocket 4.1 21:11:22 46° WSW 21:12:14 55° WNW 21:16:33 10° N
Cosmos 1743 Rocket 3.8 21:16:41 65° WNW 21:16:41 65° WNW 21:20:56 10° N
USA 267 3.2 21:16:20 56° SE 21:17:53 81° SSW 21:24:30 10° WNW
Cosmos 1980 3.9 21:13:40 10° SW 21:19:20 70° WNW 21:25:03 10° NNE
Cosmos 2369 Rocket 2.5 21:15:36 10° NNW 21:21:13 52° NE 21:21:39 51° ENE
Meteor 1-16 4.5 21:21:30 75° E 21:21:30 75° E 21:26:54 10° NNE
Cosmos 2298 Rocket 4.2 21:16:31 10° NNW 21:21:46 64° WSW 21:22:14 61° SW
Spot 2 Rocket 3.9 21:21:59 50° SW 21:22:41 55° W 21:27:38 10° NNW
Cosmos 1315 Rocket 4.5 21:19:46 10° NW 21:23:07 27° W 21:23:29 26° WSW
NOSS 3-3 (A) 4.2 21:25:47 47° ENE 21:25:47 47° ENE 21:30:36 10° NE
Cosmos 2150 Rocket 4.2 21:21:47 10° NNW 21:26:52 57° WSW 21:27:07 57° WSW
Cosmos 1975 4.1 21:32:52 37° NNW 21:32:52 37° NNW 21:35:24 10° N
NOSS 3-4 (A) 3.7 21:40:11 10° NW 21:46:52 80° NE 21:47:59 66° ESE
NOSS 3-4 (C) 3.7 21:40:17 10° NW 21:46:57 79° NE 21:48:05 65° ESE
Cosmos 1943 Rocket 3.6 21:42:35 10° NW 21:47:05 26° WSW 21:47:58 25° WSW
Okean 1-7 4.2 21:42:55 10° N 21:45:43 39° N 21:45:43 39° N
SL-16 R/B 2.9 21:49:08 42° NE 21:49:08 42° NE 21:52:55 10° NE
Terra 3.4 21:47:52 26° WSW 21:48:26 27° W 21:52:26 10° NW
Ariane Rocket 4.1 21:54:54 35° WSW 21:55:08 35° W 21:59:47 10° NNW
Cosmos 2266 Rocket 3.9 21:49:19 10° N 21:55:29 77° ENE 21:55:29 77° ENE
Cosmos 2263 4.4 21:52:06 10° NNW 21:57:25 67° NNE 21:57:25 67° NNE
Cosmos 2278 Rocket 4.5 22:00:15 10° WNW 22:03:03 14° W 22:04:48 12° WSW
Cosmos 1655 Rocket 4.1 22:09:58 10° N 22:15:58 72° NE 22:15:58 72° NE
USA 215 3.2 22:18:14 10° ENE 22:24:48 80° NNW 22:31:21 10° WSW
ARIANE 5 R/B 4.3 22:34:11 30° NNW 22:34:11 30° NNW 22:36:27 10° NNW
Cosmos 2237 Rocket 4.0 22:30:25 10° W 22:35:11 28° NW 22:39:59 10° NNE
ATLAS 2AS CENTAUR R/B 4.2 22:31:47 10° NW 22:37:56 31° NNE 22:43:40 11° ENE
Cosmos 2369 Rocket 3.7 22:59:58 10° NW 23:03:25 28° WNW 23:03:25 28° WNW
ATLAS CENTAUR R/B 4.3 23:11:25 12° NNE 23:11:25 12° NNE 23:11:51 10° NNE
Cosmos 1980 Rocket 4.5 23:24:46 10° N 23:28:39 19° NNE 23:31:53 12° ENE
Cosmos 1745 Rocket 4.4 23:23:55 10° N 23:29:08 57° NNE 23:29:08 57° NNE
SL-16 R/B 3.7 23:30:57 29° WNW 23:31:51 30° NW 23:36:51 10° NNE
